Omaha Offutt, NE

9:35 AM CDT on April 23, 2017 (GMT -0500)
Offutt Air Force Base

Weather History for KOFF - May, 2014

Change the Weather History Date:

Saturday, May 3, 2014

  Actual Average Record
Temperature  
Mean Temperature 57 °F -  
Max Temperature 73 °F 67 °F 83 °F (2012)
Min Temperature 41 °F 47 °F 29 °F (2011)
Degree Days  
Heating Degree Days 8    
Growing Degree Days 7 (Base 50)    
Moisture  
Dew Point 41 °F    
Average Humidity 54    
Maximum Humidity 98    
Minimum Humidity 29    
Precipitation  
Precipitation 0.00 in - - ()
Sea Level Pressure  
Sea Level Pressure 29.92 in    
Wind  
Wind Speed 5 mph (NNW)    
Max Wind Speed 10 mph    
Max Gust Speed -    
Visibility 10 miles    
Events      
Averages and records for this station are not official NWS values.
T = Trace of Precipitation, MM = Missing Value Source: NWS Daily Summary

Daily Weather History Graph

Daily Weather History Graph

Search for Another Location

Airport or City:

Trip Planner

Search our weather history database for the weather conditions in past years. The results will help you decide how hot, cold, wet, or windy it might be!

Date:

Astronomy

May. 03, 2014 Rise Set
Actual Time 6:18 AM CDT 8:22 PM CDT
Civil Twilight 5:48 AM CDT 8:53 PM CDT
Nautical Twilight 5:11 AM CDT 9:30 PM CDT
Astronomical Twilight 4:31 AM CDT 10:10 PM CDT
Moon 9:49 AM CDT (5/3) No Moon Set
Length of Visible Light 15h 04m
Length of Day
14h 03m
Waxing Crescent, 20% of the Moon is Illuminated
May 3
Waxing Crescent
May 6
First Quarter
May 14
Full
May 21
Last Quarter
May 28
New

Hourly Weather History & Observations

Time (CDT) Temp. Dew Point Humidity Pressure Visibility Wind Dir Wind Speed Gust Speed Precip Events Conditions
12:58 AM 57.7 °F 38.1 °F 48% 29.86 in 10.0 mi WSW 4.6 mph - N/A   Mostly Cloudy
1:58 AM 54.9 °F 38.3 °F 54% 29.86 in 10.0 mi WNW 9.2 mph - N/A   Overcast
2:58 AM 50.7 °F 37.2 °F 60% 29.88 in 10.0 mi WNW 10.4 mph - N/A   Clear
3:58 AM 49.1 °F 38.8 °F 68% 29.89 in 10.0 mi WNW 9.2 mph - N/A   Mostly Cloudy
4:58 AM 48.2 °F 38.8 °F 70% 29.90 in 10.0 mi Calm Calm - N/A   Partly Cloudy
5:58 AM 45.9 °F 39.6 °F 79% 29.91 in 10.0 mi NW 1.2 mph - N/A   Clear
6:58 AM 41.4 °F 40.8 °F 98% 29.93 in 10.0 mi Calm Calm - N/A   Clear
7:58 AM 49.5 °F 44.6 °F 83% 29.92 in 10.0 mi WNW 5.8 mph - N/A   Clear
8:58 AM 53.2 °F 43.5 °F 70% 29.96 in 10.0 mi NNW 4.6 mph - N/A   Clear
9:58 AM 57.7 °F 43.9 °F 60% 29.95 in 10.0 mi Calm Calm - N/A   Clear
10:58 AM 62.2 °F 37.2 °F 39% 29.95 in 10.0 mi Calm Calm - N/A   Clear
11:58 AM 66.2 °F 36.3 °F 33% 29.95 in 8.0 mi WNW 3.5 mph - N/A   Clear
12:58 PM 68.0 °F 40.1 °F 36% 29.94 in 10.0 mi Calm Calm - N/A   Partly Cloudy
1:58 PM 68.9 °F 38.1 °F 32% 29.92 in 10.0 mi NW 2.3 mph - N/A   Partly Cloudy
2:58 PM 71.1 °F 39.4 °F 32% 29.91 in 10.0 mi NE 3.5 mph - N/A   Clear
3:58 PM 72.3 °F 40.3 °F 31% 29.91 in 8.0 mi WNW 8.1 mph - N/A   Clear
4:58 PM 73.0 °F 40.5 °F 31% 29.90 in 10.0 mi WNW 3.5 mph - N/A   Clear
5:58 PM 72.7 °F 39.0 °F 29% 29.90 in 10.0 mi Calm Calm - N/A   Clear
6:58 PM 71.8 °F 44.8 °F 38% 29.91 in 10.0 mi Calm Calm - N/A   Clear
7:58 PM 67.1 °F 43.9 °F 43% 29.92 in 10.0 mi NE 6.9 mph - N/A   Clear
8:58 PM 60.4 °F 43.3 °F 53% 29.92 in 10.0 mi NE 6.9 mph - N/A   Clear
9:58 PM 58.8 °F 44.1 °F 58% 29.94 in 10.0 mi NNE 10.4 mph - N/A   Clear
10:58 PM 56.7 °F 46.0 °F 68% 29.94 in 10.0 mi NE 9.2 mph - N/A   Clear
11:58 PM 52.2 °F 45.9 °F 79% 29.91 in 10.0 mi ENE 9.2 mph - N/A   Partly Cloudy